DRAGON CRS-15 DEB (43524 NORAD) Tracking and Keplerian Element Data

This shows tracking and keplerian element data for the satellite.

Feedback or suggestion? Click here.




ElementValue
Catalog43524
NameDRAGON CRS-15 DEB
Epoch Orbit176
Epoch Day191.41643098
Epoch Year2018
RAAN259.0937
Inclination51.6539
Eccentricity0.0013185
Argument of Perigee62.8152
Mean Anonmoly299.8886
Mean Motion16.40527448
Decay Rate0.16341647
L11 43524U 18055C 18191.41643098 .16341647 12514-4 10602-2 0 9992
L22 43524 51.6539 259.0937 0013185 62.8152 299.8886 16.40527448 1761



Live tracking and technical data element details for DRAGON CRS-15 DEB (NORAD 43524). DRAGON CRS-15 DEB can be tracked NOW for your location showing map with azimuth and elevation plus other details from your city location.







IsCatalogInMostPopularTable: catalog: 43524, numindb: 552
Update: records affected: 1



GetName: 43524 DRAGON CRS-15 DEB

Hit Count: updated at: Thu, 15 May 2025 10:30:23 GMT